Miscellaneous Local Product
Issued by NWS Hastings, NE

Home | Current Version | Previous Version | Text Only | Print | Product List | Glossary Off
Versions: 1 2 3 4 5 6 7 8 9 10 11 12 13 14 15 16 17 18 19 20 21 22 23 24 25 26 27 28 29 30 31 32 33 34 35 36 37 38 39 40 41 42 43 44 45 46 47 48 49 50

790
AXUS43 KGID 271102
MISGRI

GID CWA HOURLY WEATHER ROUNDUP
NATIONAL WEATHER SERVICE HASTINGS NE
500 AM CST MON FEB 27 2017

NOTE: "FAIR" INDICATES FEW OR NO CLOUDS BELOW 12,000 FEET WITH NO
SIGNIFICANT WEATHER AND/OR OBSTRUCTIONS TO VISIBILITY.

...SOUTH CENTRAL NEBRASKA...

CITY           SKY/WX    TMP DP  RH WIND       PRES   REMARKS
GRAND ISLAND   CLEAR     24  17  74 S7        29.92S WCI  16
HASTINGS       CLEAR     27  15  61 S5        29.92S WCI  22
KEARNEY        CLEAR     23  12  63 SE3       29.90S
ORD            CLEAR     14  10  84 CALM      29.88S
YORK           CLEAR     27  19  74 S7        29.93F WCI  19
AURORA         CLEAR     28  17  64 S6        29.92S WCI  21
LEXINGTON      CLEAR     17  14  86 CALM      29.89R
HOLDREGE       CLEAR     24  11  58 S8        29.89S WCI  15
HEBRON         CLEAR     23  18  80 CALM      29.94S

...NEBRASKA PANHANDLE...

CITY           SKY/WX    TMP DP  RH WIND       PRES   REMARKS
CHADRON        CLOUDY    27  14  58 SW17      29.68F WCI  14
ALLIANCE       CLOUDY    15   8  73 S14       29.71F WCI   0
SCOTTSBLUFF    CLOUDY    15   6  67 E10       29.72F WCI   2
SIDNEY         CLOUDY    18  10  71 S10       29.73F WCI   6

...WESTERN AND NORTH CENTRAL NEBRASKA...

CITY           SKY/WX    TMP DP  RH WIND       PRES   REMARKS
VALENTINE      CLOUDY     8   3  80 SW8       29.80F WCI  -4
AINSWORTH      CLOUDY    18  11  75 S9        29.82S WCI   7
ONEILL         CLOUDY    15  10  80 SW7       29.87S WCI   5
BROKEN BOW     CLEAR     12   8  84 CALM      29.86S
IMPERIAL       CLEAR     17   9  70 E3        29.82F
NORTH PLATTE   CLEAR     16  10  77 CALM      29.86S
MCCOOK         CLEAR     16  10  77 CALM      29.87S

...EASTERN NEBRASKA...

CITY           SKY/WX    TMP DP  RH WIND       PRES   REMARKS
NORFOLK        CLEAR     19  16  88 CALM      29.91F
SO SIOUX CITY  CLEAR     17  14  88 E9        29.96F WCI   6
TEKAMAH        CLEAR     22  19  89 S7        29.97F WCI  13
COLUMBUS       CLEAR     19  16  86 CALM      29.94S
ALBION         CLEAR     17  13  84 CALM      29.91S
OMAHA EPPLEY   CLEAR     25  18  74 CALM      29.98S
OFFUTT AFB     CLEAR     21  18  86 CALM      29.97F
MILLARD        CLEAR     24  23  94 CALM      29.98S
LINCOLN        CLEAR     19  16  88 CALM      29.97F
NEBRASKA CITY  CLEAR     28  17  64 SE3       29.98S
BEATRICE       CLEAR     19  16  86 SE3       29.96S
FALLS CITY     CLEAR     23  20  88 SE6       29.99S WCI  16

...NORTHERN KANSAS...

CITY           SKY/WX    TMP DP  RH WIND       PRES   REMARKS
GOODLAND       CLEAR     22  16  78 S13       29.79F WCI  10
HILL CITY      CLEAR     14   8  77 CALM      29.88F
PHILLIPSBURG   CLEAR     16  10  79 CALM      29.90F
SMITH CENTER   CLEAR     19  12  73 E7        29.92S WCI  10
HAYS           CLEAR     21  13  71 CALM      29.90S
RUSSELL        CLEAR     24  19  81 SE9       29.89S WCI  14
CONCORDIA      CLEAR     26  19  74 E3        29.92F
SALINA         CLEAR     25  20  81 SE6       29.95S WCI  18
TOPEKA         MOCLDY    23  23 100 E3        30.01S FOG



USA.gov is the U.S. government's official web portal to all federal, state and local government web resources and services.